This is the latest recevied weather packets stored in our database for station/object KG0HG. If no packets are shown the sender has not sent any weather packets the latest 10 day(s).
| Time | Temp. | Humidity | Pressure | Rain* | Wind** | Luminosity | Snow |
|---|---|---|---|---|---|---|---|
| 1777470103 | 10° C | 76% | 1021.2 hPa | 0 mm | - | 31 W/m² | - |
| 1777469799 | 10° C | 77% | 1021 hPa | 0 mm | - | 31 W/m² | - |
| 1777469495 | 9.44° C | 79% | 1021.1 hPa | 0 mm | - | 45 W/m² | - |
| 1777469195 | 9.44° C | 80% | 1021.3 hPa | 0 mm | - | 43 W/m² | - |
| 1777468889 | 9.44° C | 81% | 1021.3 hPa | 0 mm | - | 34 W/m² | - |
| 1777468586 | 8.89° C | 83% | 1021 hPa | 0 mm | - | 31 W/m² | - |
| 1777468283 | 8.89° C | 83% | 1021.1 hPa | 0 mm | - | 32 W/m² | - |
| 1777467979 | 8.89° C | 84% | 1021.2 hPa | 0 mm | - | 28 W/m² | - |
| 1777467676 | 8.33° C | 85% | 1021.4 hPa | 0 mm | - | 28 W/m² | - |
| 1777467371 | 8.33° C | 85% | 1021.2 hPa | 0 mm | - | 23 W/m² | - |
| 1777467066 | 8.33° C | 86% | 1021.2 hPa | 0 mm | - | 21 W/m² | - |
| 1777466764 | 7.78° C | 87% | 1021.1 hPa | 0 mm | - | 20 W/m² | - |
| 1777466462 | 7.78° C | 88% | 1021 hPa | 0 mm | - | 18 W/m² | - |
| 1777466157 | 7.22° C | 89% | 1020.7 hPa | 0 mm | - | 17 W/m² | - |
| 1777465854 | 7.22° C | 90% | 1021.1 hPa | 0 mm | - | 16 W/m² | - |
| 1777465550 | 6.67° C | 91% | 1020.9 hPa | 0 mm | - | 15 W/m² | - |
| 1777465244 | 6.67° C | 91% | 1020.8 hPa | 0 mm | - | 15 W/m² | - |
| 1777464940 | 6.67° C | 91% | 1020.7 hPa | 0 mm | - | 13 W/m² | - |
| 1777464635 | 6.67° C | 91% | 1020.6 hPa | 0 mm | - | 12 W/m² | - |
| 1777464331 | 6.67° C | 91% | 1020.4 hPa | 0 mm | - | 10 W/m² | - |
| 1777464027 | 6.67° C | 91% | 1020.5 hPa | 0 mm | - | 9 W/m² | - |
| 1777463722 | 6.67° C | 91% | 1020.4 hPa | 0 mm | - | 8 W/m² | - |
| 1777463417 | 6.67° C | 91% | 1020.2 hPa | 0 mm | - | 6 W/m² | - |
| 1777463113 | 6.67° C | 90% | 1020.2 hPa | 0 mm | - | 5 W/m² | - |
| 1777462809 | 6.67° C | 90% | 1020 hPa | 0 mm | - | 3 W/m² | - |
* Rain latest hour (hover to see other rain measurements)
** Current wind speed in m/s (hover to see current wind gust speed)